Location: Buckland
(65.9785°N, 161.1281°W)
Time: 20:43:23
(UTC+00:00)

SPROUT - Pass Details

Date: 24 January 2021
Orbit: 597 x 610 km, 97.9° (Epoch: 07 March)

Event Time Altitude Azimuth Distance (km) Brightness Sun altitude
Exits shadow 05:04:40 - 16° (NNE) 2,108 ? -18.3°
Reaches altitude 10° 05:05:51 10° 1° (N) 1,981 ? -18.4°
Maximum altitude 05:06:25 10° 353° (N) 1,966 ? -18.4°
Drops below altitude 10° 05:07:00 10° 345° (NNW) 1,982 ? -18.5°
Sets 05:11:17 0° 304° (NW) 2,888 ? -18.9°
